This demonstration page uses our WeatherBlox Daily Observations layout. Learn more.

Hourly Observations for January 13, 2020

Temp ( °F °C ) Dew Point ( °F °C ) Humidity (%) Winds ( mph kmh ) Pressure ( in mb ) Visibility ( mi km ) Precip ( " mm )
12:15 am 00:15 Cloudy 37 3 37 3 100 100 SSE 8 13 30.23 1024 7 11.26538 N/A
12:35 am 00:35 Cloudy 37 3 37 3 100 100 S 6 9 30.24 1024 10 16.0934 N/A
12:55 am 00:55 Cloudy 37 3 37 3 100 100 SSW 5 7 30.25 1025 10 16.0934 N/A
1:15 am 01:15 Cloudy 37 3 37 3 100 100 S 6 9 30.24 1024 10 16.0934 N/A
1:36 am 01:36 Cloudy 37 3 37 3 100 100 SSW 7 11 30.24 1024 10 16.0934 N/A
1:56 am 01:56 Cloudy 39 4 39 4 100 100 S 7 11 30.24 1024 10 16.0934 N/A
2:16 am 02:16 Cloudy 39 4 39 4 100 100 SSW 8 13 30.24 1024 10 16.0934 N/A
2:35 am 02:35 Cloudy 39 4 39 4 100 100 SSW 10 17 30.24 1024 10 16.0934 N/A
2:55 am 02:55 Cloudy 39 4 39 4 100 100 SSW 12 19 30.24 1024 10 16.0934 N/A
3:15 am 03:15 Cloudy 39 4 39 4 100 100 SW 9 15 30.24 1024 10 16.0934 N/A
3:35 am 03:35 Cloudy 39 4 39 4 100 100 SW 8 13 30.24 1024 10 16.0934 N/A
3:55 am 03:55 Cloudy 39 4 39 4 100 100 WSW 10 17 30.25 1024 10 16.0934 N/A
4:16 am 04:16 Cloudy 39 4 39 4 100 100 WSW 12 19 30.26 1025 10 16.0934 N/A
4:35 am 04:35 Cloudy 39 4 37 3 93 93 WSW 15 24 30.26 1025 10 16.0934 N/A
4:55 am 04:55 Cloudy 39 4 39 4 100 100 WSW 9 15 30.26 1025 10 16.0934 N/A
5:16 am 05:16 Cloudy 39 4 37 3 93 93 WSW 16 26 30.27 1025 10 16.0934 N/A
5:36 am 05:36 Cloudy 37 3 37 3 100 100 W 13 20 30.27 1025 10 16.0934 N/A
5:56 am 05:56 Cloudy 37 3 37 3 100 100 WSW 16 26 30.28 1026 10 16.0934 N/A
6:16 am 06:16 Cloudy 37 3 37 3 100 100 W 16 26 30.29 1026 10 16.0934 N/A
6:35 am 06:35 Cloudy 37 3 37 3 100 100 W 15 24 30.31 1027 10 16.0934 N/A
6:55 am 06:55 Cloudy 37 3 36 2 93 93 W 15 24 30.31 1027 10 16.0934 N/A
7:15 am 07:15 Cloudy 37 3 36 2 93 93 W 12 19 30.32 1027 10 16.0934 N/A
7:35 am 07:35 Cloudy 37 3 36 2 93 93 W 13 20 30.33 1027 10 16.0934 N/A
7:56 am 07:56 Cloudy 37 3 37 3 100 100 W 10 17 30.34 1028 10 16.0934 N/A
8:16 am 08:16 Cloudy 36 2 36 2 100 100 WNW 13 20 30.35 1028 10 16.0934 N/A
8:36 am 08:36 Cloudy 36 2 36 2 100 100 WNW 9 15 30.36 1028 10 16.0934 N/A
8:56 am 08:56 Cloudy 36 2 36 2 100 100 W 9 15 30.36 1028 10 16.0934 N/A
9:16 am 09:16 Cloudy 36 2 36 2 100 100 W 10 17 30.37 1028 10 16.0934 N/A
9:36 am 09:36 Cloudy 37 3 36 2 93 93 W 7 11 30.36 1028 10 16.0934 N/A
9:55 am 09:55 Partly Cloudy 37 3 36 2 93 93 W 6 9 30.37 1029 10 16.0934 N/A
10:16 am 10:16 Mostly Cloudy 39 4 37 3 93 93 WSW 7 11 30.39 1029 10 16.0934 N/A
10:35 am 10:35 Cloudy 37 3 36 2 93 93 WSW 6 9 30.4 1030 10 16.0934 N/A
10:55 am 10:55 Cloudy 39 4 37 3 93 93 W 7 11 30.4 1030 10 16.0934 N/A
11:15 am 11:15 Cloudy 37 3 36 2 93 93 WSW 6 9 30.41 1030 10 16.0934 N/A
11:35 am 11:35 Cloudy 39 4 36 2 87 87 W 7 11 30.42 1030 10 16.0934 N/A
11:55 am 11:55 Cloudy 39 4 36 2 87 87 WSW 5 7 30.41 1030 10 16.0934 N/A
12:15 pm 12:15 Cloudy 39 4 36 2 87 87 WSW 5 7 30.4 1030 10 16.0934 N/A
12:35 pm 12:35 Cloudy 39 4 36 2 87 87 S 5 7 30.4 1030 10 16.0934 N/A
12:55 pm 12:55 Cloudy 39 4 36 2 87 87 W 3 6 30.39 1029 10 16.0934 N/A
1:15 pm 13:15 Cloudy 39 4 36 2 87 87 Calm 30.39 1029 10 16.0934 N/A
1:35 pm 13:35 Cloudy 39 4 36 2 87 87 W 3 6 30.37 1028 10 16.0934 N/A
1:56 pm 13:56 Cloudy 39 4 36 2 87 87 Calm 30.37 1028 10 16.0934 N/A
2:16 pm 14:16 Cloudy 41 5 37 3 87 87 S 7 11 30.36 1028 10 16.0934 N/A
2:36 pm 14:36 Cloudy 39 4 36 2 87 87 S 6 9 30.36 1028 10 16.0934 N/A
2:55 pm 14:55 Cloudy 39 4 36 2 87 87 S 5 7 30.36 1028 10 16.0934 N/A
3:15 pm 15:15 Cloudy 39 4 37 3 93 93 Calm 30.36 1028 10 16.0934 N/A
3:35 pm 15:35 Cloudy 41 5 37 3 87 87 S 7 11 30.36 1028 10 16.0934 N/A
3:56 pm 15:56 Cloudy 39 4 37 3 93 93 S 3 6 30.36 1028 10 16.0934 N/A
4:15 pm 16:15 Cloudy 39 4 37 3 93 93 SE 3 6 30.37 1028 10 16.0934 N/A
4:35 pm 16:35 Cloudy 39 4 37 3 93 93 SE 5 7 30.36 1028 10 16.0934 N/A
4:56 pm 16:56 Cloudy 39 4 37 3 93 93 SE 7 11 30.36 1028 10 16.0934 N/A
5:15 pm 17:15 Mostly Cloudy 37 3 36 2 93 93 SE 5 7 30.36 1028 10 16.0934 N/A
5:35 pm 17:35 Partly Cloudy 37 3 36 2 93 93 SSE 5 7 30.35 1028 10 16.0934 N/A
5:55 pm 17:55 Partly Cloudy 37 3 36 2 93 93 SE 5 7 30.35 1028 10 16.0934 N/A
6:15 pm 18:15 Mostly Cloudy 36 2 36 2 100 100 SE 3 6 30.36 1028 10 16.0934 N/A
6:35 pm 18:35 Partly Cloudy 36 2 36 2 100 100 SE 5 7 30.36 1028 10 16.0934 N/A
6:56 pm 18:56 Clear 36 2 36 2 100 100 Calm 30.36 1028 10 16.0934 N/A
7:15 pm 19:15 Clear 36 2 36 2 100 100 E 3 6 30.37 1028 10 16.0934 N/A
7:35 pm 19:35 Clear 34 1 34 1 100 100 ENE 5 7 30.36 1028 10 16.0934 N/A
7:55 pm 19:55 Clear 32 0 32 0 100 100 E 5 7 30.37 1028 10 16.0934 N/A
8:15 pm 20:15 Clear 32 0 32 0 100 100 E 6 9 30.35 1028 10 16.0934 N/A
8:36 pm 20:36 Clear 32 0 32 0 100 100 E 5 7 30.35 1028 10 16.0934 N/A
8:55 pm 20:55 Clear 32 0 32 0 100 100 E 5 7 30.34 1027 7 11.26538 N/A
9:16 pm 21:16 Clear 32 0 32 0 100 100 E 7 11 30.32 1027 7 11.26538 N/A
9:36 pm 21:36 Clear 32 0 32 0 100 100 E 5 7 30.32 1027 10 16.0934 N/A
9:56 pm 21:56 Clear 32 0 32 0 100 100 ENE 6 9 30.31 1026 10 16.0934 N/A
10:15 pm 22:15 Clear 32 0 32 0 100 100 ENE 5 7 30.32 1027 7 11.26538 N/A
10:35 pm 22:35 Clear 30 -1 30 -1 100 100 E 6 9 30.29 1026 7 11.26538 N/A
10:56 pm 22:56 Clear 32 0 32 0 100 100 E 7 11 30.28 1025 7 11.26538 N/A
11:15 pm 23:15 Clear 32 0 32 0 100 100 ESE 6 9 30.29 1026 7 11.26538 N/A
11:36 pm 23:36 Clear 32 0 32 0 100 100 ESE 5 7 30.29 1026 10 16.0934 N/A
11:56 pm 23:56 Clear 32 0 32 0 100 100 ESE 6 9 30.28 1025 10 16.0934 N/A

Powered by AerisWeather